星链-36490(STARLINK-36490)

导读

STARLINK-36490是美国SpaceX星链计划的卫星,于2026年1月4日发射。星链旨在构建全球卫星互联网星座,该卫星会参与提供全球高速互联网服务,尤其覆盖偏远及网络基础设施薄弱区域,是星链低轨星座部署进程中新增的组网卫星,助力拓展星座覆盖密度与服务能力。

基本信息
目录编号:
67305
目录名称:
STARLINK-36490
国际标识:
2026-002A
轨道中心:
EARTH
卫星名称:
星链-36490
卫星全名:
星链-36490(STARLINK-36490)
卫星状态:
在轨 (已飞行243 天)
发射日期:
2026-01-04 UTC
国别 :
美国 (US)
星等 :
--
轨道信息
数据来源 国际轨道数据
星历时间: 2026-09-03T18:03:08+0800
20小时前
查看轨道信息
半长轴: 6861.167km
偏心率: 0.0001098
轨道倾角: 43.001°
近地点辐角 272.105°
升交点赤经 41.254°
平近点角 87.967°
近地点: 482.276km
远地点: 483.784km
周期: 94.266分钟
每日圈数: 15.275864
详细信息
固有亮度:
5
最大亮度:
2.5
卫星平台:
Starlink V1.0
覆盖范围:
全球
运营商:
太空探索技术公司
运营商所在国:
美国
制造商(研发单位):
太空探索技术公司
制造商所在国:
美国
使用方式:
暂无
卫星简介
Starlink 计划是 SpaceX 推出的全球卫星互联网项目,通过发射低轨道卫星,为全球尤其是偏远地区提供高速、低延迟的互联网服务。自 2019 年起,Starlink 已部署数千颗卫星,旨在缩小全球数字鸿沟,推动互联网普及。该项目还为军事、航空等行业提供通信支持,带来广泛经济效益。
2D轨道图
3D轨道图
轨道高度分析图
轨道倾角分析图
轨道综合分析图
查看轨道综合分析图
交会数据列表
事件ID 空间交会对象 最接近时刻(TCA) 交会距离 交会风险概率(CRP) 交会风险指数(CRI) 操作
CDM_260904-131705-600006-730522
2026-09-04T
13:17:13+0000
0.409 km
远距离
2.182181E-4 高风险 0.82
CDM_260905-083605-885406-730521
2026-09-05T
08:36:16+0000
0.606 km
远距离
7.482565E-5 中风险 0.72
CDM_260905-023705-600006-730521
2026-09-05T
02:37:31+0000
0.713 km
远距离
5.186801E-5 中风险 0.69
CDM_260904-145105-600006-730522
2026-09-04T
14:51:22+0000
1.672 km
极远距离
3.078142E-6 低风险 0.45
CDM_260905-041105-600006-730521
2026-09-05T
04:11:41+0000
1.709 km
极远距离
2.883225E-6 低风险 0.44
CDM_260905-070205-885406-730521
2026-09-05T
07:02:06+0000
2.076 km
极远距离
1.558231E-6 低风险 0.39
CDM_260904-114305-600006-730522
2026-09-04T
11:43:04+0000
2.211 km
极远距离
1.505724E-6 低风险 0.39
CDM_260905-010305-600006-730521
2026-09-05T
01:03:22+0000
2.940 km
极远距离
9.440736E-7 极低风险 0.35